Miscellaneous Local Product
Issued by NWS Hastings, NE

Home | Current Version | Previous Version | Text Only | Print | Product List | Glossary On
Versions: 1 2 3 4 5 6 7 8 9 10 11 12 13 14 15 16 17 18 19 20 21 22 23 24 25 26 27 28 29 30 31 32 33 34 35 36 37 38 39 40 41 42 43 44 45 46 47 48 49 50
000
AXUS43 KGID 011902
MISGRI

GID CWA HOURLY WEATHER ROUNDUP
NATIONAL WEATHER SERVICE HASTINGS NE
100 PM CST SUN FEB 01 2015

NOTE: "FAIR" INDICATES FEW OR NO CLOUDS BELOW 12,000 FEET WITH NO
SIGNIFICANT WEATHER AND/OR OBSTRUCTIONS TO VISIBILITY.

...SOUTH CENTRAL NEBRASKA...

CITY           SKY/WX    TMP DP  RH WIND       PRES   REMARKS
GRAND ISLAND   LGT SNOW   8   2  76 N32G38    30.21R VSB 3/4 WCI -16
HASTINGS       HVY SNOW  10   5  80 N31       30.18R VSB 1/4 WCI -13
KEARNEY        CLOUDY     9   3  78 N31       30.20S VSB 1   WCI -14
ORD            LGT SNOW   6  -1  73 N24G32    30.24S VSB 1   WCI -16
YORK           LGT SNOW   7   5  92 N24G31    30.16S VSB 3/4 WCI -15
AURORA         SNOW       8   5  85 N28G36    30.18S VSB 1/2 WCI -14
LEXINGTON      CLOUDY    11   5  76 N31       30.24S HAZE    WCI -11
HOLDREGE       CLOUDY    11   6  78 N26G38    30.20S HAZE    WCI -10
HEBRON         LGT SNOW  11   6  78 N18G26    30.14R VSB 3/4 WCI  -6

...NEBRASKA PANHANDLE...

CITY           SKY/WX    TMP DP  RH WIND       PRES   REMARKS
CHADRON        PTSUNNY    9   2  73 NE3       30.35F
ALLIANCE       PTSUNNY    8   1  73 N15       30.26F WCI  -9
SCOTTSBLUFF    PTSUNNY   19   8  62 N22       30.26F WCI   2
SIDNEY         FLURRIES  15   9  76 N21G28    30.23S WCI  -2

...WESTERN AND NORTH CENTRAL NEBRASKA...

CITY           SKY/WX    TMP DP  RH WIND       PRES   REMARKS
VALENTINE      MIX PCPN   4  -4  69 N16G26    30.34S WCI -15
AINSWORTH      PTSUNNY    2  -4  75 NW24      30.30F HAZE    WCI -21
ONEILL         LGT SNOW   5   0  80 NW26G35   30.28S WCI -18
BROKEN BOW     LGT SNOW   8   1  73 N30G37    30.23S WCI -15
IMPERIAL       MOSUNNY   13   4  67 N29G35    30.26F WCI  -8
NORTH PLATTE   PTSUNNY   10   1  67 N24G37    30.27R WCI -10
MCCOOK         PTSUNNY   16   6  65 NW24      30.27S WCI  -2

...EASTERN NEBRASKA...

CITY           SKY/WX    TMP DP  RH WIND       PRES   REMARKS
NORFOLK        LGT SNOW   5  -1  76 N28G40    30.20S VSB 3/4 WCI -18
SO SIOUX CITY  HAZE      13   7  77 N26G35    30.18S VSB 3/4 WCI  -7
TEKAMAH        HAZE      15  10  80 N30G38    30.13R VSB 1/2 WCI  -5
ALBION         LGT SNOW   6  -1  73 NW28G37   30.20S VSB 3/4 WCI -18
OMAHA EPPLEY   SNOW      17  13  84 N29G41    30.06R VSB 1/2 WCI  -2
OFFUTT AFB     LGT SNOW  18  13  82 NW16G26   30.05R VSB 1   WCI   3
MILLARD        LGT SNOW  18  12  79 N6        30.08R WCI   9
LINCOLN        CLOUDY    13   7  77 N29G40    30.13R BLWGSNOWWCI  -8
NEBRASKA CITY  LGT SNOW  19  16  88 N22G29    29.99R VSB 1   WCI   2
BEATRICE       LGT SNOW  13   9  83 N21       30.09R WCI  -5
FALLS CITY     LGT SNOW  22  17  81 NW17G33   29.97R VSB 1   WCI   8

...NORTHERN KANSAS...

CITY           SKY/WX    TMP DP  RH WIND       PRES   REMARKS
GOODLAND       FLURRIES  17   9  70 N32G40    30.21F WCI  -3
HILL CITY      CLOUDY    18  10  71 N28G38    30.25R WCI  -1
NORTON         CLOUDY    16   7  67 NW29G38   30.22  HAZE    WCI  -4
PHILLIPSBURG   CLOUDY    19  10  68 NW23G33   30.23S HAZE    WCI   2
SMITH CENTER   LGT SNOW  14   9  79 NW29G39   30.20S WCI  -7
BELOIT         PTSUNNY   16  10  79 NW28      30.19S WCI  -4
HAYS           CLOUDY    19   7  58 N28G39    30.19S WCI   1
RUSSELL        FLURRIES  19  13  77 NW30G43   30.15F WCI   0
CONCORDIA      CLOUDY    14   8  77 N22G44    30.14R BLWGSNOWWCI  -4
SALINA         LGT SNOW  19  12  74 NW35G45   30.14S VSB 1   WCI  -1
TOPEKA         LGT SNOW  24  18  77 NW26G36   29.98R WCI   8



USA.gov is the U.S. government's official web portal to all federal, state and local government web resources and services.